Flag for Germany Weather past 2 weeks in Varel, Lower Saxony, Germany

Now
54 °F

Broken clouds.


Feels Like: 50 °F
Forecast: 46 / 68 °F
Wind: 13 mph from Northeast

Location: Wittmundhaven


UV Index: 0 (Low)

Visibility: 6 mi


Pressure: 29.77 "Hg

Humidity: 88%

Dew point: 50 °F

Location of VarelLocation

Historic Weather in Varel

°F

Varel temperature yesterday

Maximum temperature yesterday: 68 °F (at 3:20 PM)
Minimum temperature yesterday: 48 °F (at 2:20 AM)
Average temperature yesterday: 57 °F

Past Weeks' High & Low Weather Summary

 TemperatureHumidityPressure
High68 °F (Apr 20, 3:20 PM)100% (Apr 9, 8:45 PM)30.48 "Hg (Apr 9, 8:45 PM)
Low30 °F (Apr 16, 4:20 AM)33% (Apr 16, 3:20 PM)29.62 "Hg (Apr 8, 5:20 AM)
Average49 °F77%30.03 "Hg
* Reported Apr 6 11:20 AM — Apr 21 11:20 AM, Varel, Weather by CustomWeather, © 2014

Note: Actual official high and low records may vary slightly from our data, if they occured in-between our weather recording intervals... More about our weather records

Advertising

Historic Weather Conditions — Data for Previous 24 hours

 ConditionsComfort  
Time TempWeatherWind HumidityBarometerVisibility
11:20 AM
Apr 21
54 °FBroken clouds.13 mph88%29.77 "Hg6 mi
10:20 AM50 °FPartly sunny.8 mph94%29.77 "Hg5 mi
9:20 AM50 °FLight rain. Partly sunny.14 mph94%29.77 "Hg5 mi
8:20 AM50 °FLight rain. Partly sunny.8 mph94%29.77 "Hg6 mi
7:20 AM50 °FLight rain. Partly sunny.7 mph88%29.80 "Hg6 mi
6:20 AM50 °FPartly cloudy.10 mph82%29.80 "HgN/A
5:20 AM48 °FPassing clouds.12 mph87%29.80 "HgN/A
4:20 AM50 °FPassing clouds.9 mph88%29.80 "HgN/A
3:20 AM50 °FPassing clouds.8 mph88%29.83 "HgN/A
2:20 AM52 °FPassing clouds.10 mph82%29.83 "HgN/A
1:20 AM54 °FPassing clouds.10 mph82%29.86 "HgN/A
12:20 AM55 °FPassing clouds.10 mph77%29.86 "HgN/A
11:20 PM
Apr 20
57 °FPassing clouds.13 mph77%29.86 "HgN/A
10:20 PM59 °FPassing clouds.10 mph72%29.86 "HgN/A
9:20 PM61 °FScattered clouds.12 mph68%29.83 "HgN/A
8:20 PM63 °FPassing clouds.15 mph64%29.83 "HgN/A
7:20 PM64 °FPassing clouds.17 mph60%29.80 "HgN/A
6:20 PM66 °FPassing clouds.20 mph56%29.80 "HgN/A
5:20 PM68 °FPassing clouds.20 mph49%29.80 "HgN/A
4:20 PM66 °FScattered clouds.22 mph52%29.83 "HgN/A
3:20 PM68 °FPassing clouds.21 mph53%29.86 "HgN/A
2:20 PM66 °FPassing clouds.21 mph56%29.86 "HgN/A
1:20 PM64 °FPassing clouds.18 mph64%29.89 "HgN/A
12:20 PM63 °FPassing clouds.16 mph64%29.89 "HgN/A
Weather by CustomWeather, © 2014

See weather overview